[[{"header":{"parameterUnit":"m.s-1","parameterCategory":1,"la1":30.2991,"la2":30.254,"lo1":-89.0895,"lo2":-89.0444,"dy":0.0017,"dx":0.0017,"nx":28,"ny":28,"refTime":"2024-06-23T21:00:00:Z","depth":0,"parameterNumber":2,"parameterNumberName":"U-component_of_WINDS"},"data":[0,0,0,0,0,0,0,0,0,0,0,0,0,0,0,0,0,0,0,0,0,0,0,0,0,0,0,0,0,0,0,0,0,0,0,0,0,0,0,0,0,0,0,0,0,0,0,0,0,0,0,0,0,0,0,0,0,0,-0.0715,-0.0712,0,-0.0445,-0.0442,-0.0439,-0.0301,-0.0301,-0.0301,-0.0301,-0.0021,-0.0014,-0.0007,0,0,0,0,0,0,0,0,0,0,0,0,0,-0.111,-0.1103,-0.0716,-0.0712,-0.0709,-0.0445,-0.0442,-0.0438,-0.0301,-0.0301,-0.0301,-0.03,-0.0024,-0.0015,-0.0006,0,0,0,0,0,0,0,0,0,0,0,0,0,-0.0899,-0.1101,-0.0716,-0.0609,-0.0596,-0.0446,-0.0441,-0.0437,-0.0301,-0.0301,-0.0301,-0.03,-0.0026,-0.0016,-0.0005,0.006,0,0,0.0029,0.0033,0,0,0,0,0,0,0,0,-0.0911,-0.0885,-0.0628,-0.0616,-0.0602,-0.0406,-0.0478,-0.027,-0.0301,-0.0413,-0.0301,-0.03,-0.0149,-0.0128,-0.0078,0.0073,0.0085,0.003,0.0036,0.0041,0.0044,0,0,0,0,0,0,0,-0.0926,-0.0896,-0.0608,-0.0624,-0.0608,-0.0573,-0.0543,-0.0438,-0.0285,-0.0403,-0.0393,-0.0363,-0.0142,-0.0089,-0.007,0.0089,0.0029,0.0039,0.0046,0.005,0.0308,0.0309,0,0,0,0,0,0,-0.0958,-0.0909,-0.0617,-0.06,-0.0759,-0.0566,-0.0532,-0.0469,-0.0286,-0.0258,-0.0363,-0.0357,-0.0108,-0.0083,-0.006,0.0029,0.0041,0.0051,0.0058,0.0308,0.0308,0.0309,0,0,0,0,0,0,-0.0967,-0.0934,-0.0628,-0.0751,-0.071,-0.0559,-0.049,-0.0464,-0.041,-0.0256,-0.0228,-0.0337,-0.0107,-0.0075,0.0029,0.0041,0.0056,0.0066,0.0308,0.0308,0.0308,0.0206,0,0,0,0,0,0,-0.0979,-0.0938,-0.0913,-0.0752,-0.0704,-0.0545,-0.0489,-0.0459,-0.0392,-0.0382,-0.0224,-0.0197,-0.0104,0.0012,0.004,0.0056,0.0075,0.0307,0.0308,0.0308,0.0209,0.0203,0.0197,0,0,0,0,0,-0.0994,-0.0952,-0.0912,-0.0878,-0.0669,-0.0544,-0.0517,-0.0411,-0.0392,-0.0365,-0.0265,-0.0202,0.0035,0.0022,0.0054,0.0074,0.0307,0.0308,0.0308,0.0212,0.0204,0.0197,0,0,0,0,0,0,-0.1115,-0.0929,-0.0883,-0.0788,-0.0683,-0.0522,-0.0484,-0.0423,-0.0321,-0.0315,-0.0188,-0.0153,-0.006,0.0018,-0.0,0.0147,0.0177,0.0184,0.0092,0.0087,0.0081,0.006,0.0084,0,0,0,0,0,-0.1131,-0.1046,-0.0888,-0.0819,-0.0769,-0.0636,-0.0578,-0.0505,-0.0391,-0.0346,-0.0238,-0.013,-0.003,0.0033,0.0133,0.0221,0.0258,0.0251,0.0245,0.0239,0.0244,0.0298,0.0297,0.031,0.031,0.031,0,0,-0.1163,-0.1051,-0.1005,-0.0841,-0.0751,-0.0665,-0.06,-0.0511,-0.0446,-0.0332,-0.0227,-0.0144,-0.0014,0.0083,0.0131,0.0151,0.0249,0.024,0.0234,0.0243,0.0299,0.0297,0.0296,0.0311,0.0311,0.0311,0,0,-0.1177,-0.1084,-0.1016,-0.0927,-0.0792,-0.0703,-0.0688,-0.0534,-0.0475,-0.0368,-0.028,-0.0199,-0.0031,0.0058,0.0126,0.0148,0.021,0.0177,0.0147,0.0198,0.0197,0.0197,0.0205,0.0207,0.0181,0.0181,0.0181,0,-0.1233,-0.1101,-0.0989,-0.0905,-0.0835,-0.0728,-0.0658,-0.0577,-0.0416,-0.037,-0.035,-0.0136,-0.0041,0.0079,0.0085,0.0136,0.0159,0.0159,0.0188,0.0189,0.019,0.02,0.0203,0.0176,0.0177,0.0177,0.0178,0,-0.1176,-0.1086,-0.1047,-0.0895,-0.082,-0.0744,-0.0619,-0.0556,-0.049,-0.0403,-0.0294,-0.0176,-0.005,-0.0015,0.005,0.0115,0.0123,0.0163,0.0196,0.0182,0.0193,0.0198,0.0169,0.0171,0.0172,0.0173,0,0,-0.1261,-0.1046,-0.1034,-0.0963,-0.0805,-0.0732,-0.065,-0.0527,-0.0475,-0.0367,-0.0294,-0.0154,-0.0115,-0.0038,0.0039,0.0084,0.0095,0.012,0.0125,0.0111,0.0175,0.0143,0.0145,0.0137,0.0138,0.0139,0.0164,0,-0.1253,-0.1101,-0.0997,-0.0886,-0.08,-0.0696,-0.0624,-0.0519,-0.0435,-0.0349,-0.0255,-0.0158,-0.0114,-0.0067,-0.0018,0.0083,0.0109,0.0083,0.0207,0.021,0.0171,0.0151,0.0118,0.0136,0.0169,0.017,0.0171,0,-0.1223,-0.1118,-0.0999,-0.0849,-0.0809,-0.0746,-0.0624,-0.0543,-0.0421,-0.0362,-0.0277,-0.0197,-0.0105,-0.008,0.0051,0.003,0.0088,0.0145,0.0149,0.0165,0.0189,0.0167,0.0144,0.0146,0.0179,0.0178,0.0177,0,-0.1297,-0.1126,-0.1031,-0.0974,-0.0796,-0.0754,-0.0678,-0.0556,-0.0488,-0.038,-0.0334,-0.0218,-0.0154,-0.0065,0.0044,0.0052,0.0164,0.0198,0.0216,0.0213,0.0235,0.0232,0.022,0.0271,0.0271,0.0271,0.0271,0,-0.1299,-0.123,-0.1062,-0.1004,-0.0923,-0.0803,-0.0725,-0.064,-0.0532,-0.0455,-0.0357,-0.0287,-0.0147,-0.0059,0.0028,0.0123,0.0152,0.0202,0.0224,0.0193,0.0187,0.0233,0.0234,0.0272,0.0271,0.0271,0.0271,0,-0.1368,-0.1253,-0.1143,-0.0983,-0.0941,-0.0889,-0.0751,-0.069,-0.06,-0.0504,-0.0474,-0.0333,-0.0224,-0.0106,0.0043,0.0101,0.0192,0.0224,0.015,0.0163,0.0174,0.0172,0.0192,0.0202,0.0244,0.0244,0.0243,0,-0.1377,-0.1321,-0.1155,-0.1096,-0.1023,-0.093,-0.086,-0.0739,-0.0669,-0.0524,-0.0481,-0.0364,-0.0265,-0.0095,0.0021,0.0136,0.0171,0.0171,0.0189,0.0157,0.0172,0.0167,0.0174,0.0164,0.0163,0.0162,0.0162,0,-0.1405,-0.135,-0.1254,-0.1136,-0.1055,-0.0956,-0.0854,-0.0811,-0.0669,-0.0596,-0.0484,-0.0407,-0.0254,-0.0139,-0.001,0.0071,0.014,0.0155,0.0166,0.0135,0.009,0.0115,0.0135,0.0154,0.0155,0.0155,0.0156,0.0156,-0.1444,-0.1389,-0.1263,-0.1158,-0.1068,-0.0974,-0.0908,-0.081,-0.0714,-0.0581,-0.0514,-0.0402,-0.0278,-0.0097,-0.0019,0.0072,0.0094,0.0108,0.0112,0.0114,0.0106,0.0075,0.0096,0.0097,0.0097,0.0097,0.0098,0,-0.1467,-0.1381,-0.1285,-0.1144,-0.1061,-0.1002,-0.0885,-0.0819,-0.0721,-0.0612,-0.0516,-0.0385,-0.0273,-0.0147,-0.0026,0.0023,0.0058,0.005,0.0048,0.0065,0.008,0.0059,0.002,0.002,0.002,0.002,0.002,0.002,-0.147,-0.1373,-0.1303,-0.116,-0.1073,-0.0963,-0.0901,-0.0813,-0.0724,-0.0583,-0.049,-0.0408,-0.0291,-0.016,-0.0054,-0.0019,0.0021,0.0004,0.0047,0.0058,0.0064,0.007,0.0051,0.0011,0.0011,0.0026,0.0026,0.0026]},{"header":{"parameterUnit":"m.s-1","parameterCategory":1,"la1":30.2991,"la2":30.254,"lo1":-89.0895,"lo2":-89.0444,"dy":0.0017,"dx":0.0017,"nx":28,"ny":28,"refTime":"2024-06-23T21:00:00:Z","depth":0,"parameterNumber":3,"parameterNumberName":"V-component_of_WINDS"},"data":[0,0,0,0,0,0,0,0,0,0,0,0,0,0,0,0,0,0,0,0,0,0,0,0,0,0,0,0,0,0,0,0,0,0,0,0,0,0,0,0,0,0,0,0,0,0,0,0,0,0,0,0,0,0,0,0,0,0,3.6415,3.6415,0,3.6347,3.6346,3.6346,3.6271,3.627,3.6269,3.6268,3.6193,3.6192,3.6191,0,0,0,0,0,0,0,0,0,0,0,0,0,3.6477,3.6476,3.6415,3.6415,3.6414,3.6347,3.6346,3.6345,3.6271,3.627,3.6269,3.6268,3.6194,3.6192,3.6191,0,0,0,0,0,0,0,0,0,0,0,0,0,3.6434,3.6476,3.6416,3.6369,3.6364,3.6348,3.6346,3.6345,3.6272,3.627,3.6268,3.6267,3.6194,3.6192,3.6191,3.6214,0,0,3.6186,3.6186,0,0,0,0,0,0,0,0,3.6436,3.6432,3.6377,3.6372,3.6367,3.6316,3.6341,3.6301,3.6272,3.6307,3.6268,3.6266,3.6235,3.623,3.6221,3.621,3.6207,3.6186,3.6185,3.6185,3.6184,0,0,0,0,0,0,0,3.6439,3.6434,3.6388,3.6376,3.637,3.635,3.6342,3.6333,3.628,3.6303,3.6298,3.6291,3.6232,3.6222,3.6218,3.6206,3.6186,3.6185,3.6184,3.6183,3.621,3.6211,0,0,0,0,0,0,3.645,3.6437,3.639,3.6386,3.6398,3.635,3.6341,3.6334,3.628,3.6271,3.6292,3.6288,3.6226,3.622,3.6215,3.6238,3.6185,3.6183,3.6182,3.6208,3.621,3.6212,0,0,0,0,0,0,3.6452,3.6447,3.6393,3.641,3.6402,3.6351,3.6343,3.6333,3.6324,3.6272,3.6262,3.6293,3.6224,3.6217,3.6215,3.6234,3.6183,3.6181,3.6206,3.6209,3.6211,3.6283,0,0,0,0,0,0,3.6454,3.6448,3.6457,3.6411,3.6401,3.6395,3.6344,3.6333,3.6322,3.6315,3.6269,3.626,3.6222,3.6217,3.6213,3.6231,3.618,3.6204,3.6207,3.621,3.6279,3.6288,3.6296,0,0,0,0,0,3.6456,3.6479,3.6458,3.6452,3.6412,3.6397,3.6391,3.6348,3.6324,3.6332,3.6299,3.6262,3.6233,3.6218,3.6212,3.623,3.6203,3.6206,3.621,3.6275,3.6286,3.6295,0,0,0,0,0,0,3.6526,3.6472,3.6448,3.6456,3.6432,3.6384,3.6393,3.6361,3.6342,3.6336,3.6283,3.6273,3.6276,3.6253,3.6237,3.6249,3.6212,3.6215,3.6264,3.6274,3.6282,3.6287,3.6179,0,0,0,0,0,3.6543,3.6537,3.6489,3.6501,3.6491,3.6444,3.6436,3.6406,3.6377,3.6366,3.6332,3.6305,3.629,3.6281,3.6264,3.6276,3.6264,3.6285,3.6293,3.6301,3.6303,3.6307,3.6315,3.6223,3.6223,3.6223,0,0,3.6577,3.6547,3.6545,3.6515,3.6492,3.6485,3.6436,3.6431,3.6425,3.6364,3.636,3.6335,3.6301,3.6306,3.6306,3.6286,3.6326,3.6305,3.6311,3.631,3.6311,3.632,3.6328,3.6226,3.6225,3.6225,0,0,3.6635,3.6612,3.662,3.6599,3.6566,3.6535,3.6537,3.6494,3.6476,3.6471,3.6426,3.6417,3.6392,3.637,3.6355,3.6406,3.6371,3.6402,3.6445,3.6449,3.6456,3.6462,3.6479,3.6486,3.6405,3.6405,3.6405,0,3.6681,3.6671,3.6627,3.6625,3.6613,3.656,3.6566,3.6548,3.651,3.6502,3.6481,3.6449,3.6422,3.6421,3.6433,3.6424,3.6423,3.6406,3.6459,3.6465,3.647,3.6485,3.6492,3.6409,3.6408,3.6408,3.6408,0,3.6728,3.6722,3.6731,3.6699,3.6687,3.669,3.6645,3.6639,3.661,3.6581,3.6576,3.6543,3.6518,3.6516,3.6486,3.651,3.6498,3.6469,3.6431,3.6483,3.6497,3.6503,3.6415,3.6413,3.6412,3.6411,0,0,3.6827,3.6772,3.6776,3.676,3.6721,3.6714,3.6714,3.6691,3.6686,3.6663,3.666,3.6641,3.6614,3.6597,3.6565,3.6569,3.6611,3.6539,3.6537,3.6552,3.6633,3.6655,3.6662,3.6588,3.6589,3.659,3.6636,0,3.6877,3.6875,3.6836,3.6844,3.6837,3.6788,3.6787,3.6762,3.6736,3.6724,3.6694,3.6681,3.6647,3.6636,3.6638,3.6605,3.6626,3.6602,3.6583,3.6583,3.6592,3.667,3.6692,3.6737,3.6641,3.6642,3.6642,0,3.6935,3.6917,3.6925,3.6885,3.6881,3.6882,3.6858,3.6849,3.6819,3.6799,3.6782,3.6746,3.6741,3.6707,3.6699,3.6683,3.6674,3.6656,3.6657,3.6652,3.6615,3.6666,3.675,3.6757,3.6651,3.665,3.6649,0,3.7005,3.6982,3.6984,3.6973,3.6927,3.6928,3.6909,3.6878,3.6867,3.6846,3.6839,3.6817,3.6805,3.6788,3.6747,3.6726,3.6743,3.6706,3.6725,3.6726,3.6729,3.6729,3.6812,3.6726,3.6726,3.6726,3.6726,0,3.7064,3.7071,3.7015,3.7016,3.7022,3.6977,3.6983,3.6959,3.6932,3.6926,3.6882,3.6877,3.6824,3.6813,3.678,3.6778,3.6773,3.6755,3.6746,3.6759,3.6761,3.675,3.6745,3.6727,3.6727,3.6727,3.6726,0,3.7143,3.7106,3.7104,3.7062,3.7052,3.7058,3.702,3.7019,3.699,3.6983,3.6979,3.6933,3.6918,3.6876,3.6849,3.6827,3.6833,3.6818,3.6844,3.6838,3.6859,3.6858,3.6937,3.6945,3.6855,3.6856,3.6857,0,3.7182,3.7186,3.7145,3.7139,3.7122,3.7113,3.7102,3.7059,3.7049,3.7016,3.7018,3.7,3.6982,3.696,3.6923,3.6902,3.6884,3.6914,3.6881,3.6893,3.6883,3.6883,3.6882,3.692,3.6922,3.6923,3.6923,0,3.7256,3.7238,3.7225,3.7206,3.7195,3.7178,3.7157,3.7154,3.7105,3.7096,3.7081,3.7068,3.7042,3.7023,3.6997,3.6975,3.6941,3.6935,3.6938,3.6949,3.6964,3.6955,3.6862,3.6932,3.6932,3.6931,3.693,3.693,3.7315,3.7316,3.7288,3.7275,3.7256,3.7238,3.7234,3.7206,3.7193,3.717,3.7145,3.7132,3.7102,3.7063,3.7044,3.7032,3.7014,3.7019,3.702,3.7021,3.7026,3.6968,3.7027,3.7027,3.7027,3.7026,3.7026,0,3.7385,3.7365,3.7354,3.7328,3.7317,3.7289,3.7265,3.7258,3.7248,3.7224,3.7208,3.7191,3.7173,3.7136,3.7114,3.7112,3.7095,3.7107,3.7106,3.7101,3.7044,3.7043,3.7121,3.7121,3.7121,3.7121,3.7121,3.7121,3.742,3.7421,3.74,3.739,3.7369,3.7358,3.7347,3.733,3.731,3.7293,3.7279,3.7256,3.7226,3.7202,3.7184,3.7173,3.7166,3.7183,3.7167,3.7114,3.7105,3.7097,3.7095,3.7183,3.7183,3.7225,3.7225,3.7226]}]]